DW8414 Weather Reports


time (UTC)temp
F
wind
direction
speed
knots
gust
knots
rain 1hr
in
rain 24hr
in
rain mn
in
humidity
%
barometer
mb
20260505041611 72 46 0.0 0.0 0.00 0.00 0.00 68 1000.0
20260505041317 72 50 0.0 0.0 0.00 0.00 0.00 68 1002.3
20260505040823 73 31 0.0 0.0 0.00 0.00 0.00 67 1002.4
20260505040322 73 51 0.0 0.9 0.00 0.00 0.00 67 1002.6
20260505040006 72 38 0.0 0.9 0.00 0.00 0.00 67 1000.2
20260505035842 73 156 0.0 0.9 0.00 0.00 0.00 66 1002.4
20260505035410 73 109 0.0 0.0 0.00 0.00 0.00 66 1002.3
20260505034832 73 159 0.0 0.0 0.00 0.00 0.00 66 1002.3
20260505034547 72 153 0.0 0.9 0.00 0.00 0.00 66 999.9
20260505034332 73 155 0.0 0.9 0.00 0.00 0.00 66 1002.3
20260505033824 73 148 0.0 0.9 0.00 0.00 0.00 65 1002.2
20260505033358 73 139 0.0 3.5 0.00 0.00 0.00 65 1002.2
20260505033058 73 152 0.0 3.5 0.00 0.00 0.00 65 999.9
20260505032848 73 125 0.9 3.5 0.00 0.00 0.00 64 1002.3
20260505032332 73 138 0.0 1.7 0.00 0.00 0.00 63 1002.2
20260505031837 73 165 0.0 1.7 0.00 0.00 0.00 63 1002.3
20260505031604 73 161 0.0 0.0 0.00 0.00 0.00 62 1000.0
20260505031344 74 148 0.0 0.0 0.00 0.00 0.00 62 1002.1
20260505030821 74 136 0.0 0.9 0.00 0.00 0.00 61 1002.1
20260505030357 74 146 0.0 0.9 0.00 0.00 0.00 61 1002.2
20260505030042 74 152 0.0 1.7 0.00 0.00 0.00 61 1000.0
20260505025932 74 146 0.0 1.7 0.00 0.00 0.00 61 1002.1
20260505025343 74 163 0.0 0.9 0.00 0.00 0.00 60 1002.3
20260505024829 75 166 0.0 1.7 0.00 0.00 0.00 60 1002.2
20260505024514 74 148 0.0 4.3 0.00 0.00 0.00 59 999.8
20260505024335 75 149 0.0 4.3 0.00 0.00 0.00 59 1001.9
20260505023834 75 135 0.0 4.3 0.00 0.00 0.00 59 1002.0
20260505023333 75 143 0.0 0.9 0.00 0.00 0.00 59 1002.1
20260505023055 74 144 0.0 2.6 0.00 0.00 0.00 59 1000.0
20260505022824 75 205 0.0 2.6 0.00 0.00 0.00 59 1002.3
20260505022320 75 145 0.0 0.9 0.00 0.00 0.00 58 1002.2
20260505021823 75 181 0.0 0.9 0.00 0.00 0.00 58 1002.3
20260505021518 74 209 0.0 0.0 0.00 0.00 0.00 57 1000.1
20260505021324 75 170 0.0 0.0 0.00 0.00 0.00 57 1002.1
20260505020825 75 212 0.0 1.7 0.00 0.00 0.00 57 1002.0
20260505020338 75 155 0.0 1.7 0.00 0.00 0.00 56 1001.8
20260505020059 75 202 0.0 0.0 0.00 0.00 0.00 56 999.5
20260505015844 75 206 0.0 0.0 0.00 0.00 0.00 55 1001.9
20260505015328 76 160 0.0 0.9 0.00 0.00 0.00 55 1001.9
20260505014823 76 155 0.0 1.7 0.00 0.00 0.00 55 1001.7
20260505014510 75 146 0.0 1.7 0.00 0.00 0.00 54 999.3
20260505014327 76 157 0.0 1.7 0.00 0.00 0.00 54 1001.6
20260505013827 76 170 0.0 2.6 0.00 0.00 0.00 54 1001.6
20260505013335 76 170 0.0 2.6 0.00 0.00 0.00 53 1001.4
20260505013048 76 178 0.0 0.9 0.00 0.00 0.00 53 999.0
20260505012834 77 150 0.0 0.9 0.00 0.00 0.00 53 1001.2
20260505012321 77 175 0.0 3.5 0.00 0.00 0.00 52 1001.1
20260505011917 77 130 0.0 3.5 0.00 0.00 0.00 52 1001.1
20260505011537 77 157 0.0 3.5 0.00 0.00 0.00 52 998.6
20260505011345 77 170 0.0 3.5 0.00 0.00 0.00 51 1000.9
20260505010825 77 207 0.0 5.2 0.00 0.00 0.00 51 1000.8
20260505010339 78 157 0.9 5.2 0.00 0.00 0.00 50 1000.7
20260505010109 77 111 0.0 4.3 0.00 0.00 0.00 50 998.5
20260505005841 78 153 0.0 3.5 0.00 0.00 0.00 50 1000.8
20260505005340 78 177 0.9 3.5 0.00 0.00 0.00 50 1000.9
20260505004836 78 190 0.0 0.9 0.00 0.00 0.00 50 1000.9
20260505004604 78 184 0.0 0.9 0.00 0.00 0.00 49 998.6
20260505004328 79 185 0.0 0.9 0.00 0.00 0.00 49 1000.8
20260505003854 79 241 0.0 6.1 0.00 0.00 0.00 49 1000.7
20260505003343 79 175 0.0 6.1 0.00 0.00 0.00 49 1000.6
20260505003053 79 156 0.9 6.1 0.00 0.00 0.00 48 998.3
20260505002826 79 195 0.0 6.1 0.00 0.00 0.00 48 1000.4
20260505002327 79 146 0.9 6.1 0.00 0.00 0.00 48 1000.5
20260505001821 80 153 0.9 4.3 0.00 0.00 0.00 48 1000.6
20260505001514 79 81 0.9 4.3 0.00 0.00 0.00 48 998.4
20260505001321 80 136 0.9 4.3 0.00 0.00 0.00 47 1000.7
20260505000856 80 190 0.0 3.5 0.00 0.00 0.00 48 1000.8
20260505000337 80 189 0.9 2.6 0.00 0.00 0.00 47 1000.9
20260505000022 80 138 0.0 4.3 0.00 0.00 0.00 47 998.7
20260504235832 81 136 0.0 4.3 0.00 0.00 0.00 46 1001.0
20260504235335 81 217 0.9 4.3 0.00 0.00 0.00 46 1001.0
20260504234846 81 232 0.9 3.5 0.00 0.00 0.00 46 1001.0
20260504234518 81 154 0.0 4.3 0.00 0.00 0.00 45 998.8
20260504234316 82 146 0.0 4.3 0.00 0.00 0.00 45 1001.1
20260504233824 82 153 0.0 3.5 0.00 0.00 0.00 45 1001.0
20260504233357 83 161 0.0 4.3 0.00 0.00 0.00 44 1000.9
20260504233030 82 173 0.0 7.8 0.00 0.00 0.00 44 998.6
20260504232836 83 161 0.9 7.8 0.00 0.00 0.00 44 1000.9
20260504232339 83 155 1.7 7.8 0.00 0.00 0.00 43 1001.0
20260504231847 83 244 0.0 3.5 0.00 0.00 0.00 42 1001.0
20260504231506 83 177 0.0 4.3 0.00 0.00 0.00 42 998.7
20260504231405 83 156 0.0 4.3 0.00 0.00 0.00 42 1001.0
20260504230818 84 167 0.9 4.3 0.00 0.00 0.00 41 1000.9
20260504230322 84 248 0.0 4.3 0.00 0.00 0.00 41 1001.0
20260504230025 83 155 0.0 4.3 0.00 0.00 0.00 41 998.5
20260504225824 84 209 0.0 3.5 0.00 0.00 0.00 41 1000.8
20260504225324 84 166 0.9 5.2 0.00 0.00 0.00 41 1000.8
20260504224821 84 174 0.9 5.2 0.00 0.00 0.00 40 1000.8
20260504224550 84 201 0.0 5.2 0.00 0.00 0.00 40 998.5
20260504224319 85 151 0.9 5.2 0.00 0.00 0.00 40 1000.7
20260504223846 85 193 0.0 7.0 0.00 0.00 0.00 40 1000.8
20260504223332 85 138 0.9 8.7 0.00 0.00 0.00 38 1000.6
20260504223052 85 234 0.9 8.7 0.00 0.00 0.00 39 998.4
20260504222828 86 136 1.7 8.7 0.00 0.00 0.00 38 1000.6
20260504222326 86 194 0.0 8.7 0.00 0.00 0.00 37 1000.6
20260504221847 86 146 0.0 8.7 0.00 0.00 0.00 36 1000.6
20260504221551 85 162 0.0 8.7 0.00 0.00 0.00 35 998.4
20260504221319 86 202 0.0 2.6 0.00 0.00 0.00 37 1000.6
20260504220822 86 137 0.0 4.3 0.00 0.00 0.00 35 1000.7
20260504220326 86 149 0.0 5.2 0.00 0.00 0.00 34 1000.6
20260504220019 85 150 0.0 5.2 0.00 0.00 0.00 36 998.4
20260504215823 86 142 0.9 5.2 0.00 0.00 0.00 35 1000.7
20260504215331 86 217 0.0 5.2 0.00 0.00 0.00 35 1000.7
20260504214823 85 188 0.0 7.0 0.00 0.00 0.00 36 1000.9
20260504214608 85 201 0.0 7.0 0.00 0.00 0.00 34 998.6
20260504214323 85 190 0.0 9.6 0.00 0.00 0.00 37 1000.9
20260504213825 85 138 0.0 9.6 0.00 0.00 0.00 37 1001.0
20260504213322 85 132 1.7 9.6 0.00 0.00 0.00 37 1001.1
20260504213012 85 144 0.0 6.1 0.00 0.00 0.00 37 998.9
20260504212829 86 119 0.0 6.1 0.00 0.00 0.00 35 1001.2
20260504212323 86 224 0.0 3.5 0.00 0.00 0.00 35 1001.2
20260504211831 85 229 0.0 4.3 0.00 0.00 0.00 33 1001.3
20260504211537 85 250 0.0 4.3 0.00 0.00 0.00 33 999.2
20260504211335 85 138 0.9 4.3 0.00 0.00 0.00 33 1001.4
20260504210831 85 205 0.0 3.5 0.00 0.00 0.00 34 1001.5
20260504210323 85 126 0.0 4.3 0.00 0.00 0.00 35 1001.6
20260504210109 84 173 0.0 4.3 0.00 0.00 0.00 33 999.4
20260504205845 84 151 0.0 4.3 0.00 0.00 0.00 32 1001.7
20260504205335 84 188 0.0 0.9 0.00 0.00 0.00 33 1001.7
20260504204847 84 103 0.0 1.7 0.00 0.00 0.00 32 1001.9
20260504204608 83 153 0.0 2.6 0.00 0.00 0.00 33 999.7
20260504204334 84 126 0.0 7.0 0.00 0.00 0.00 34 1001.9
20260504203834 83 124 0.0 7.0 0.00 0.00 0.00 33 1002.1
20260504203325 83 136 0.0 4.3 0.00 0.00 0.00 33 1002.1
20260504203025 83 94 0.0 4.3 0.00 0.00 0.00 33 999.9
20260504202829 84 119 0.9 4.3 0.00 0.00 0.00 33 1002.2
20260504202331 83 227 0.0 2.6 0.00 0.00 0.00 36 1002.2
20260504201852 83 154 0.0 2.6 0.00 0.00 0.00 35 1002.3
20260504201611 83 160 0.0 2.6 0.00 0.00 0.00 36 1000.2
20260504201318 83 150 0.0 2.6 0.00 0.00 0.00 38 1002.4
20260504200821 83 168 0.9 3.5 0.00 0.00 0.00 37 1002.6
20260504200323 83 187 0.0 3.5 0.00 0.00 0.00 38 1002.6
20260504200043 82 192 0.0 3.5 0.00 0.00 0.00 38 1000.4
20260504195844 83 154 0.0 4.3 0.00 0.00 0.00 38 1002.8
20260504195319 83 227 0.9 4.3 0.00 0.00 0.00 36 1002.9
20260504194834 83 232 0.9 3.5 0.00 0.00 0.00 36 1003.0
20260504194552 82 194 0.0 3.5 0.00 0.00 0.00 36 1000.7
20260504194340 82 190 0.0 3.5 0.00 0.00 0.00 37 1003.0
20260504193838 82 221 0.9 3.5 0.00 0.00 0.00 37 1003.1
20260504193324 82 150 0.0 3.5 0.00 0.00 0.00 39 1003.0
20260504193107 81 143 0.0 3.5 0.00 0.00 0.00 38 1000.9
20260504192857 82 186 0.0 4.3 0.00 0.00 0.00 38 1003.1
20260504192329 82 186 0.9 4.3 0.00 0.00 0.00 36 1003.2
20260504191823 82 140 0.0 4.3 0.00 0.00 0.00 36 1003.2
20260504191513 82 153 0.0 4.3 0.00 0.00 0.00 36 1001.0
20260504191326 82 165 0.9 4.3 0.00 0.00 0.00 35 1003.2
20260504190844 83 182 0.0 0.9 0.00 0.00 0.00 36 1003.3
20260504190322 83 194 0.0 3.5 0.00 0.00 0.00 36 1003.4
20260504190015 82 161 0.0 3.5 0.00 0.00 0.00 37 1001.2
20260504185819 83 207 0.9 3.5 0.00 0.00 0.00 40 1003.4
20260504185334 82 205 0.0 0.9 0.00 0.00 0.00 38 1003.4
20260504184836 82 195 0.0 2.6 0.00 0.00 0.00 37 1003.5
20260504184536 81 214 0.0 2.6 0.00 0.00 0.00 37 1001.4
20260504184320 82 197 0.0 2.6 0.00 0.00 0.00 39 1003.6
20260504183843 82 149 0.0 1.7 0.00 0.00 0.00 38 1003.6
20260504183319 81 149 0.0 4.3 0.00 0.00 0.00 38 1003.6
20260504183046 81 183 0.9 4.3 0.00 0.00 0.00 39 1001.4
20260504182822 81 222 0.0 4.3 0.00 0.00 0.00 40 1003.6
20260504182319 80 143 0.0 3.5 0.00 0.00 0.00 41 1003.7
20260504181842 80 242 0.0 2.6 0.00 0.00 0.00 42 1003.8
20260504181601 79 277 0.0 2.6 0.00 0.00 0.00 41 1001.7
20260504181343 80 250 0.0 3.5 0.00 0.00 0.00 43 1003.9
20260504180837 79 274 0.9 3.5 0.00 0.00 0.00 44 1003.9
20260504180333 79 250 0.9 7.0 0.00 0.00 0.00 44 1003.9
20260504180020 79 188 0.0 7.0 0.00 0.00 0.00 43 1001.7
20260504175831 79 132 0.9 7.0 0.00 0.00 0.00 45 1003.9
20260504175342 79 204 0.9 4.3 0.00 0.00 0.00 45 1003.9
20260504174817 79 170 0.9 4.3 0.00 0.00 0.00 43 1003.9
20260504174523 78 194 0.0 4.3 0.00 0.00 0.00 45 1001.7
20260504174321 78 220 0.9 4.3 0.00 0.00 0.00 46 1003.9
20260504173846 79 144 0.9 4.3 0.00 0.00 0.00 44 1004.0
20260504173351 79 220 0.0 1.7 0.00 0.00 0.00 44 1004.1
20260504173021 78 201 0.0 4.3 0.00 0.00 0.00 46 1001.9
20260504172832 78 229 0.0 4.3 0.00 0.00 0.00 45 1004.0
20260504172340 78 220 0.0 5.2 0.00 0.00 0.00 44 1003.9
20260504171828 78 133 1.7 5.2 0.00 0.00 0.00 44 1004.1
20260504171551 77 200 0.0 4.3 0.00 0.00 0.00 47 1001.8
20260504171320 77 197 0.0 4.3 0.00 0.00 0.00 46 1004.1
20260504170850 77 194 0.0 1.7 0.00 0.00 0.00 47 1004.1
20260504170337 77 217 0.0 3.5 0.00 0.00 0.00 46 1004.1
20260504160339 73 209 0.9 7.0 0.00 0.00 0.00 52 1004.1
20260504150817 70 248 0.0 3.5 0.00 0.00 0.00 55 1003.9
20260504150320 69 266 0.0 5.2 0.00 0.00 0.00 56 1003.9
20260504141334 66 230 0.0 3.5 0.00 0.00 0.00 59 1004.1
20260504140839 66 209 0.9 4.3 0.00 0.00 0.00 59 1004.1
20260504140326 66 226 0.0 4.3 0.00 0.00 0.00 58 1004.2
20260504130317 63 220 0.9 4.3 0.00 0.00 0.00 62 1004.2
20260504130107 62 215 0.0 4.3 0.00 0.00 0.00 62 1002.2
20260504120133 60 211 0.0 3.5 0.00 0.00 0.00 63 1001.9
20260504110334 61 246 0.0 3.5 0.00 0.00 0.00 60 1003.9
20260504100330 63 179 0.0 3.5 0.00 0.00 0.00 57 1004.5
20260504081836 65 198 0.0 6.1 0.00 0.00 0.00 52 1005.0
20260504081528 65 234 0.0 6.1 0.00 0.00 0.00 52 1003.3
20260504081334 65 188 0.0 6.1 0.00 0.00 0.00 52 1005.1
20260504080837 66 166 0.9 3.5 0.00 0.00 0.00 52 1005.2
20260504080317 66 223 0.9 4.3 0.00 0.00 0.00 51 1005.2
20260504070320 68 232 0.9 3.5 0.00 0.00 0.00 48 1006.0
20260504050345 69 233 0.0 2.6 0.00 0.00 0.00 42 1006.8
20260504050108 69 238 0.0 1.7 0.00 0.00 0.00 41 1005.4
20260504045905 69 199 0.0 4.3 0.00 0.00 0.00 41 1006.7
20260504045332 69 192 0.0 4.3 0.00 0.00 0.00 41 1006.8
20260504044827 69 169 0.0 3.5 0.00 0.00 0.00 40 1006.9
20260504044603 69 170 0.0 2.6 0.00 0.00 0.00 40 1005.4
20260504044316 70 161 0.0 4.3 0.00 0.00 0.00 40 1006.8
20260504043829 70 213 0.9 4.3 0.00 0.00 0.00 39 1006.9
20260504043327 70 215 0.0 4.3 0.00 0.00 0.00 39 1006.8
20260504043019 70 182 0.0 4.3 0.00 0.00 0.00 39 1005.5
20260504042828 70 167 0.0 4.3 0.00 0.00 0.00 39 1006.9
20260504042336 70 174 0.9 3.5 0.00 0.00 0.00 38 1006.8